Miscellaneous Local Product
Issued by NWS Hastings, NE

Home | Current Version | Previous Version | Graphics & Text | Print | Product List | Glossary On
Versions: 1 2 3 4 5 6 7 8 9 10 11 12 13 14 15 16 17 18 19 20 21 22 23 24 25 26 27 28 29 30 31 32 33 34 35 36 37 38 39 40 41 42 43 44 45 46 47 48 49 50
572
AXUS43 KGID 202002
MISGRI

GID CWA HOURLY WEATHER ROUNDUP
NATIONAL WEATHER SERVICE HASTINGS NE
300 PM CDT WED MAY 20 2015

NOTE: "FAIR" INDICATES FEW OR NO CLOUDS BELOW 12,000 FEET WITH NO
SIGNIFICANT WEATHER AND/OR OBSTRUCTIONS TO VISIBILITY.

...SOUTH CENTRAL NEBRASKA...

CITY           SKY/WX    TMP DP  RH WIND       PRES   REMARKS
GRAND ISLAND   CLOUDY    49  43  80 N13       30.27F
HASTINGS       CLOUDY    50  42  74 N12       30.26S
KEARNEY        CLOUDY    48  39  71 NE15      30.27S
ORD            CLOUDY    49  40  71 N6        30.28S
YORK           CLOUDY    46  45  93 NE13      30.26S
AURORA         CLOUDY    46  45  95 N13       30.27R
LEXINGTON      CLOUDY    52  44  75 N8        30.27F
HOLDREGE       CLOUDY    47  42  82 N10       30.27S
HEBRON         CLOUDY    52  42  66 N8        30.24S

...NEBRASKA PANHANDLE...

CITY           SKY/WX    TMP DP  RH WIND       PRES   REMARKS
CHADRON        CLOUDY    44  35  70 E9        30.33S
ALLIANCE       CLOUDY    42  34  73 NE9       30.30S
SCOTTSBLUFF    CLOUDY    46  34  62 E6        30.30F
SIDNEY         CLOUDY    44  34  67 N7        30.29F

...WESTERN AND NORTH CENTRAL NEBRASKA...

CITY           SKY/WX    TMP DP  RH WIND       PRES   REMARKS
VALENTINE      CLOUDY    48  36  63 CALM      30.31F
AINSWORTH      CLOUDY    47  38  72 N3        30.31S
ONEILL         CLOUDY    47  40  76 NE6       30.30S
BROKEN BOW     CLOUDY    50  41  71 N9        30.28F
IMPERIAL       CLOUDY    48  35  60 VRB5      30.29F
NORTH PLATTE   CLOUDY    48  39  71 N6        30.29S
MCCOOK         CLOUDY    50  38  63 N9        30.28F

...EASTERN NEBRASKA...

CITY           SKY/WX    TMP DP  RH WIND       PRES   REMARKS
NORFOLK        CLOUDY    50  41  71 N8        30.27S
SO SIOUX CITY  LGT RAIN  50  43  77 NE7       30.27F
TEKAMAH        CLOUDY    50  43  77 N14       30.27R
COLUMBUS       CLOUDY    48  37  66 NE13G20   30.29S
ALBION         CLOUDY    47  43  85 N8        30.28S
OMAHA EPPLEY   CLOUDY    50  43  77 N10       30.24S
OFFUTT AFB     PTSUNNY   50  43  76 N9        30.23S
MILLARD        CLOUDY    50  44  79 N3        30.24S
LINCOLN        CLOUDY    52  42  69 N14       30.26S
NEBRASKA CITY  CLOUDY    48  47  94 N9        30.23R
BEATRICE       CLOUDY    51  44  75 N9        30.23S
FALLS CITY     CLOUDY    52  47  83 N13       30.20R

...NORTHERN KANSAS...

CITY           SKY/WX    TMP DP  RH WIND       PRES   REMARKS
GOODLAND       CLOUDY    49  37  63 N10       30.28F
HILL CITY      CLOUDY    51  41  68 N15       30.27F
NORTON         CLOUDY    50  39  66 N6        30.26F
PHILLIPSBURG   CLOUDY    52  43  71 N10       30.27S
SMITH CENTER   CLOUDY    50  43  76 N9        30.26S
HAYS           CLOUDY    52  39  62 N14       30.25S
RUSSELL        CLOUDY    51  43  74 N14       30.23S
CONCORDIA      CLOUDY    51  44  77 N10       30.24R
SALINA         CLOUDY    55  44  66 N17       30.22S
TOPEKA         CLOUDY    54  49  83 N10       30.18S



USA.gov is the U.S. government's official web portal to all federal, state and local government web resources and services.